Time,TemperatureF,DewpointF,PressureIn,WindDirection,WindDirectionDegrees,WindSpeedMPH,WindSpeedGustMPH,Humidity,HourlyPrecipIn,Conditions,Clouds,dailyrainin,SolarRadiationWatts/m^2,SoftwareType,DateUTC
2013-04-06 00:22:00,68.0,67.0,-100.00,ENE,75,6.0,14.0,97,0.00,,,0.00,0.000000,,2013-04-06 10:22:00,
2013-04-06 00:32:00,68.0,67.0,-100.00,ENE,75,6.0,14.0,97,0.00,,,0.00,0.000000,,2013-04-06 10:32:00,
2013-04-06 00:42:00,68.0,67.0,-100.00,ENE,75,6.0,14.0,97,0.00,,,0.00,0.000000,,2013-04-06 10:42:00,
2013-04-06 00:52:00,68.0,67.0,-100.00,ENE,75,6.0,14.0,97,0.00,,,0.00,0.000000,,2013-04-06 10:52:00,
2013-04-06 01:22:00,68.0,67.0,-100.00,East,87,6.0,16.0,98,0.00,,,0.00,0.000000,,2013-04-06 11:22:00,
2013-04-06 01:32:00,68.0,67.0,-100.00,East,87,6.0,16.0,98,0.00,,,0.00,0.000000,,2013-04-06 11:32:00,
2013-04-06 01:42:00,68.0,67.0,-100.00,East,87,6.0,16.0,98,0.00,,,0.00,0.000000,,2013-04-06 11:42:00,
2013-04-06 01:52:00,68.0,67.0,-100.00,East,87,6.0,16.0,98,0.00,,,0.00,0.000000,,2013-04-06 11:52:00,
2013-04-06 02:22:00,68.0,67.0,-100.00,East,84,6.0,14.0,97,0.00,,,0.00,0.000000,,2013-04-06 12:22:00,
2013-04-06 02:32:00,68.0,67.0,-100.00,East,84,6.0,14.0,97,0.00,,,0.00,0.000000,,2013-04-06 12:32:00,
2013-04-06 02:42:00,68.0,67.0,-100.00,East,84,6.0,14.0,97,0.00,,,0.00,0.000000,,2013-04-06 12:42:00,
2013-04-06 02:52:00,68.0,67.0,-100.00,East,84,6.0,14.0,97,0.00,,,0.00,0.000000,,2013-04-06 12:52:00,
2013-04-06 03:23:00,68.0,68.0,-100.00,SSW,208,5.0,14.0,100,0.03,,,0.03,0.000000,,2013-04-06 13:23:00,
2013-04-06 03:32:00,68.0,68.0,-100.00,SSW,208,5.0,14.0,100,0.03,,,0.03,0.000000,,2013-04-06 13:32:00,
2013-04-06 03:42:00,68.0,68.0,-100.00,SSW,208,5.0,14.0,100,0.03,,,0.03,0.000000,,2013-04-06 13:42:00,
2013-04-06 03:52:00,68.0,68.0,-100.00,SSW,208,5.0,14.0,100,0.03,,,0.03,0.000000,,2013-04-06 13:52:00,
2013-04-06 04:22:00,66.0,66.0,-100.00,NE,39,3.0,9.0,100,0.01,,,0.04,0.000000,,2013-04-06 14:22:00,
2013-04-06 04:32:00,66.0,66.0,-100.00,NE,39,3.0,9.0,100,0.01,,,0.04,0.000000,,2013-04-06 14:32:00,
2013-04-06 04:42:00,66.0,66.0,-100.00,NE,39,3.0,9.0,100,0.01,,,0.04,0.000000,,2013-04-06 14:42:00,
2013-04-06 04:52:00,66.0,66.0,-100.00,NE,39,3.0,9.0,100,0.01,,,0.04,0.000000,,2013-04-06 14:52:00,
2013-04-06 05:22:00,68.0,68.0,-100.00,ENE,69,3.0,10.0,100,0.00,,,0.04,0.000000,,2013-04-06 15:22:00,
2013-04-06 05:33:00,68.0,68.0,-100.00,ENE,69,3.0,10.0,100,0.00,,,0.04,0.000000,,2013-04-06 15:33:00,
2013-04-06 05:42:00,68.0,68.0,-100.00,ENE,69,3.0,10.0,100,0.00,,,0.04,0.000000,,2013-04-06 15:42:00,
2013-04-06 05:52:00,68.0,68.0,-100.00,ENE,69,3.0,10.0,100,0.00,,,0.04,0.000000,,2013-04-06 15:52:00,
2013-04-06 06:23:00,67.0,67.0,-100.00,ESE,112,4.0,13.0,100,0.00,,,0.04,0.000000,,2013-04-06 16:23:00,
2013-04-06 06:32:00,67.0,67.0,-100.00,ESE,112,4.0,13.0,100,0.00,,,0.04,0.000000,,2013-04-06 16:32:00,
2013-04-06 06:42:00,67.0,67.0,-100.00,ESE,112,4.0,13.0,100,0.00,,,0.04,0.000000,,2013-04-06 16:42:00,
2013-04-06 06:52:00,67.0,67.0,-100.00,ESE,112,4.0,13.0,100,0.00,,,0.04,0.000000,,2013-04-06 16:52:00,
2013-04-06 07:22:00,66.0,65.0,-100.00,SSE,152,4.0,14.0,97,0.00,,,0.04,7.000000,,2013-04-06 17:22:00,
2013-04-06 07:32:00,66.0,65.0,-100.00,SSE,152,4.0,14.0,97,0.00,,,0.04,7.000000,,2013-04-06 17:32:00,
2013-04-06 07:42:00,66.0,65.0,-100.00,SSE,152,4.0,14.0,97,0.00,,,0.04,7.000000,,2013-04-06 17:42:00,
2013-04-06 07:52:00,66.0,65.0,-100.00,SSE,152,4.0,14.0,97,0.00,,,0.04,7.000000,,2013-04-06 17:52:00,
2013-04-06 08:23:00,70.0,68.0,-100.00,NW,325,6.0,13.0,93,0.00,,,0.04,94.000000,,2013-04-06 18:23:00,
2013-04-06 08:32:00,70.0,68.0,-100.00,NW,325,6.0,13.0,93,0.00,,,0.04,94.000000,,2013-04-06 18:32:00,
2013-04-06 08:42:00,70.0,68.0,-100.00,NW,325,6.0,13.0,93,0.00,,,0.04,94.000000,,2013-04-06 18:42:00,
2013-04-06 08:52:00,70.0,68.0,-100.00,NW,325,6.0,13.0,93,0.00,,,0.04,94.000000,,2013-04-06 18:52:00,
2013-04-06 09:22:00,75.0,70.0,-100.00,East,87,7.0,19.0,85,0.00,,,0.04,366.000000,,2013-04-06 19:22:00,
2013-04-06 09:32:00,75.0,70.0,-100.00,East,87,7.0,19.0,85,0.00,,,0.04,366.000000,,2013-04-06 19:32:00,
2013-04-06 09:42:00,75.0,70.0,-100.00,East,87,7.0,19.0,85,0.00,,,0.04,366.000000,,2013-04-06 19:42:00,
2013-04-06 09:52:00,75.0,70.0,-100.00,East,87,7.0,19.0,85,0.00,,,0.04,366.000000,,2013-04-06 19:52:00,
2013-04-06 10:22:00,73.0,66.0,-100.00,WNW,295,12.0,21.0,80,0.00,,,0.04,594.000000,,2013-04-06 20:22:00,
2013-04-06 10:32:00,73.0,66.0,-100.00,WNW,295,12.0,21.0,80,0.00,,,0.04,594.000000,,2013-04-06 20:32:00,
2013-04-06 10:42:00,73.0,66.0,-100.00,WNW,295,12.0,21.0,80,0.00,,,0.04,594.000000,,2013-04-06 20:42:00,
2013-04-06 10:52:00,73.0,66.0,-100.00,WNW,295,12.0,21.0,80,0.00,,,0.04,594.000000,,2013-04-06 20:52:00,
2013-04-06 11:22:00,78.0,70.0,-100.00,East,94,8.0,20.0,76,0.00,,,0.04,762.000000,,2013-04-06 21:22:00,
2013-04-06 11:33:00,78.0,70.0,-100.00,East,94,8.0,20.0,76,0.00,,,0.04,762.000000,,2013-04-06 21:33:00,
2013-04-06 11:43:00,78.0,70.0,-100.00,East,94,8.0,20.0,76,0.00,,,0.04,762.000000,,2013-04-06 21:43:00,
2013-04-06 11:52:00,78.0,70.0,-100.00,East,94,8.0,20.0,76,0.00,,,0.04,762.000000,,2013-04-06 21:52:00,
2013-04-06 12:22:00,79.0,68.0,-100.00,South,175,9.0,23.0,69,0.00,,,0.04,1142.000000,,2013-04-06 22:22:00,
2013-04-06 12:34:00,79.0,68.0,-100.00,South,175,9.0,23.0,69,0.00,,,0.04,1142.000000,,2013-04-06 22:34:00,
2013-04-06 12:43:00,79.0,68.0,-100.00,South,175,9.0,23.0,69,0.00,,,0.04,1142.000000,,2013-04-06 22:43:00,
2013-04-06 12:52:00,79.0,68.0,-100.00,South,175,9.0,23.0,69,0.00,,,0.04,1142.000000,,2013-04-06 22:52:00,
2013-04-06 13:23:00,79.0,68.0,-100.00,SSW,194,8.0,23.0,69,0.00,,,-99.99,1188.000000,,2013-04-06 23:23:00,
2013-04-06 13:33:00,79.0,68.0,-100.00,SSW,194,8.0,23.0,69,0.00,,,-99.99,1188.000000,,2013-04-06 23:33:00,
2013-04-06 13:42:00,79.0,68.0,-100.00,SSW,194,8.0,23.0,69,0.00,,,-99.99,1188.000000,,2013-04-06 23:42:00,
2013-04-06 13:52:00,79.0,68.0,-100.00,SSW,194,8.0,23.0,69,0.00,,,-99.99,1188.000000,,2013-04-06 23:52:00,
2013-04-06 14:22:00,77.0,67.0,-100.00,SSE,154,11.0,21.0,71,0.00,,,0.04,1165.000000,,2013-04-07 00:22:00,
2013-04-06 14:32:00,77.0,67.0,-100.00,SSE,154,11.0,21.0,71,0.00,,,0.04,1165.000000,,2013-04-07 00:32:00,
2013-04-06 14:42:00,77.0,67.0,-100.00,SSE,154,11.0,21.0,71,0.00,,,0.04,1165.000000,,2013-04-07 00:42:00,
2013-04-06 14:52:00,77.0,67.0,-100.00,SSE,154,11.0,21.0,71,0.00,,,0.04,1165.000000,,2013-04-07 00:52:00,
2013-04-06 15:22:00,79.0,68.0,-100.00,NNE,31,8.0,20.0,68,0.00,,,0.04,1008.000000,,2013-04-07 01:22:00,
2013-04-06 15:32:00,79.0,68.0,-100.00,NNE,31,8.0,20.0,68,0.00,,,0.04,1008.000000,,2013-04-07 01:32:00,
2013-04-06 15:42:00,79.0,68.0,-100.00,NNE,31,8.0,20.0,68,0.00,,,0.04,1008.000000,,2013-04-07 01:42:00,
2013-04-06 15:52:00,79.0,68.0,-100.00,NNE,31,8.0,20.0,68,0.00,,,0.04,1008.000000,,2013-04-07 01:52:00,
2013-04-06 16:23:00,77.0,68.0,-100.00,East,97,7.0,20.0,73,0.00,,,0.04,642.000000,,2013-04-07 02:23:00,
2013-04-06 16:32:00,77.0,68.0,-100.00,East,97,7.0,20.0,73,0.00,,,0.04,642.000000,,2013-04-07 02:32:00,
2013-04-06 16:42:00,77.0,68.0,-100.00,East,97,7.0,20.0,73,0.00,,,0.04,642.000000,,2013-04-07 02:42:00,
2013-04-06 16:52:00,77.0,68.0,-100.00,East,97,7.0,20.0,73,0.00,,,0.04,642.000000,,2013-04-07 02:52:00,
2013-04-06 17:22:00,75.0,66.0,-100.00,ESE,110,9.0,19.0,74,0.00,,,0.04,448.000000,,2013-04-07 03:22:00,
2013-04-06 17:33:00,75.0,66.0,-100.00,ESE,110,9.0,19.0,74,0.00,,,0.04,448.000000,,2013-04-07 03:33:00,
2013-04-06 17:43:00,75.0,66.0,-100.00,ESE,110,9.0,19.0,74,0.00,,,0.04,448.000000,,2013-04-07 03:43:00,
2013-04-06 17:53:00,75.0,66.0,-100.00,ESE,110,9.0,19.0,74,0.00,,,0.04,448.000000,,2013-04-07 03:53:00,
2013-04-06 18:23:00,72.0,66.0,-100.00,West,279,10.0,19.0,82,0.00,,,0.04,238.000000,,2013-04-07 04:23:00,
2013-04-06 18:32:00,72.0,66.0,-100.00,West,279,10.0,19.0,82,0.00,,,0.04,238.000000,,2013-04-07 04:32:00,
2013-04-06 18:43:00,72.0,66.0,-100.00,West,279,10.0,19.0,82,0.00,,,0.04,238.000000,,2013-04-07 04:43:00,
2013-04-06 18:52:00,72.0,66.0,-100.00,West,279,10.0,19.0,82,0.00,,,0.04,238.000000,,2013-04-07 04:52:00,
2013-04-06 19:22:00,70.0,65.0,-100.00,East,86,8.0,18.0,85,0.00,,,0.04,34.000000,,2013-04-07 05:22:00,
2013-04-06 19:33:00,70.0,65.0,-100.00,East,86,8.0,18.0,85,0.00,,,0.04,34.000000,,2013-04-07 05:33:00,
2013-04-06 19:42:00,70.0,65.0,-100.00,East,86,8.0,18.0,85,0.00,,,0.04,34.000000,,2013-04-07 05:42:00,
2013-04-06 19:52:00,70.0,65.0,-100.00,East,86,8.0,18.0,85,0.00,,,0.04,34.000000,,2013-04-07 05:52:00,
2013-04-06 20:22:00,70.0,66.0,-100.00,East,83,9.0,23.0,88,0.00,,,-99.99,0.000000,,2013-04-07 06:22:00,
2013-04-06 20:32:00,70.0,66.0,-100.00,East,83,9.0,23.0,88,0.00,,,-99.99,0.000000,,2013-04-07 06:32:00,
2013-04-06 20:42:00,70.0,66.0,-100.00,East,83,9.0,23.0,88,0.00,,,-99.99,0.000000,,2013-04-07 06:42:00,
2013-04-06 20:52:00,70.0,66.0,-100.00,East,83,9.0,23.0,88,0.00,,,-99.99,0.000000,,2013-04-07 06:52:00,
2013-04-06 21:22:00,70.0,67.0,-100.00,ENE,74,7.0,22.0,90,0.00,,,0.04,0.000000,,2013-04-07 07:22:00,
2013-04-06 21:32:00,70.0,67.0,-100.00,ENE,74,7.0,22.0,90,0.00,,,0.04,0.000000,,2013-04-07 07:32:00,
2013-04-06 21:42:00,70.0,67.0,-100.00,ENE,74,7.0,22.0,90,0.00,,,0.04,0.000000,,2013-04-07 07:42:00,
2013-04-06 21:52:00,70.0,67.0,-100.00,ENE,74,7.0,22.0,90,0.00,,,0.04,0.000000,,2013-04-07 07:52:00,
2013-04-06 22:22:00,70.0,68.0,-100.00,ENE,75,9.0,19.0,92,0.00,,,0.04,0.000000,,2013-04-07 08:22:00,
2013-04-06 22:32:00,70.0,68.0,-100.00,ENE,75,9.0,19.0,92,0.00,,,0.04,0.000000,,2013-04-07 08:32:00,
2013-04-06 22:42:00,70.0,68.0,-100.00,ENE,75,9.0,19.0,92,0.00,,,0.04,0.000000,,2013-04-07 08:42:00,
2013-04-06 22:52:00,70.0,68.0,-100.00,ENE,75,9.0,19.0,92,0.00,,,0.04,0.000000,,2013-04-07 08:52:00,
2013-04-06 23:22:00,68.0,66.0,-100.00,ENE,70,7.0,17.0,94,0.00,,,0.04,0.000000,,2013-04-07 09:22:00,
2013-04-06 23:33:00,68.0,66.0,-100.00,ENE,70,7.0,17.0,94,0.00,,,0.04,0.000000,,2013-04-07 09:33:00,
2013-04-06 23:43:00,68.0,66.0,-100.00,ENE,70,7.0,17.0,94,0.00,,,0.04,0.000000,,2013-04-07 09:43:00,
2013-04-06 23:53:00,68.0,66.0,-100.00,ENE,70,7.0,17.0,94,0.00,,,0.04,0.000000,,2013-04-07 09:53:00,